Location: Carbonear
(47.7333°N, 53.2500°W)
Time: 12:48:50
(UTC+00:00)

Oscar 11 - Pass Details

Date: 02 December 2022
Orbit: 611 x 621 km, 97.6° (Epoch: 30 January)

Event Time Altitude Azimuth Distance (km) Brightness Sun altitude
Rises 07:40:35 0° 20° (NNE) 2,890 10.8 -33.0°
Reaches altitude 10° 07:42:56 10° 30° (NNE) 1,979 10.0 -32.6°
Enters shadow 07:44:20 19° 41° (NE) 1,495 9.4 -32.4°
